Location: Unspecified
(0.0000°N, 0.0000°E)
Time: 02:39:03
(UTC+02:00)

ISS - All Passes

Search period start: 28 April 2017 00:00
Search period end: 08 May 2017 00:00
Orbit: 401 x 409 km, 51.6° (Epoch: 28 April)

Date Brightness Start Highest point End Pass type
(mag) Time Alt. Az. Time Alt. Az. Time Alt. Az.
28 Apr - 06:39:51 10° SW 06:43:08 86° SE 06:46:23 10° NE visible
28 Apr - 18:13:54 10° NNW 18:17:03 47° NE 18:20:12 10° SE daylight
29 Apr - 05:48:14 10° S 05:51:07 28° SE 05:53:58 10° ENE visible
29 Apr - 17:22:46 10° N 17:25:01 17° NE 17:27:17 10° E daylight
29 Apr - 18:59:34 10° W 19:01:18 14° SW 19:03:03 10° SSW daylight
30 Apr - 04:58:00 10° SE 04:59:03 11° SE 05:00:07 10° ESE night (unlit)
30 Apr - 06:32:46 10° WSW 06:35:21 21° NW 06:37:55 10° N visible
30 Apr - 18:06:15 10° WNW 18:09:15 35° SW 18:12:17 10° SSE daylight
01 May - 05:40:04 10° SW 05:43:19 61° NW 05:46:33 10° NNE visible
01 May - 17:13:59 10° NNW 17:17:13 74° NE 17:20:28 10° SE daylight
02 May - 04:48:08 10° SSW 04:51:16 41° SE 04:54:22 10° NE night (unlit)
02 May - 16:22:27 10° N 16:25:10 24° NE 16:27:53 10° ESE daylight
03 May - 03:57:06 10° SSE 03:59:11 16° SE 04:01:16 10° E night (unlit)
03 May - 05:33:27 10° W 05:35:28 15° NW 05:37:29 10° NNW night (unlit)
03 May - 17:06:39 10° WNW 17:09:21 24° SW 17:12:04 10° S daylight
04 May - 04:40:17 10° SW 04:43:23 40° NW 04:46:29 10° NNE night (unlit)
04 May - 16:14:02 10° NW 16:17:16 72° SW 16:20:31 10° SSE daylight
05 May - 03:48:02 10° SSW 03:51:19 63° SE 03:54:32 10° NE night (unlit)
05 May - 15:22:10 10° NNW 15:25:11 35° NE 15:28:12 10° ESE daylight
06 May - 02:56:34 10° S 02:59:12 22° SE 03:01:48 10° ENE night (unlit)
06 May - 04:34:33 10° WNW 04:35:28 11° NW 04:36:24 10° NW night (unlit)
06 May - 14:31:20 10° NNE 14:33:04 14° NE 14:34:48 10° E daylight
06 May - 16:07:07 10° W 16:09:21 17° SW 16:11:35 10° S daylight
07 May - 03:40:29 10° WSW 03:43:21 27° NW 03:46:11 10° N night (unlit)
07 May - 15:14:05 10° NW 15:17:12 46° SW 15:20:21 10° SSE daylight
